Location: Unspecified
(0.0000°N, 0.0000°E)
Time: 05:39:40
(UTC+02:00)

USA 116 - Visible Passes

Search period start: 29 April 2017 00:00
Search period end: 09 May 2017 00:00
Orbit: 405 x 834 km, 97.9° (Epoch: 18 November)

Date Brightness Start Highest point End Pass type
(mag) Time Alt. Az. Time Alt. Az. Time Alt. Az.
29 Apr 5.1 06:50:44 10° SSE 06:55:58 62° ENE 07:01:15 10° N visible
30 Apr 4.5 07:04:17 10° SSE 07:09:36 90° SE 07:14:57 10° NNW visible
01 May 4.5 07:17:58 10° S 07:23:14 62° WSW 07:28:30 10° NNW visible
02 May 7.6 05:58:50 10° ESE 06:01:21 13° ENE 06:03:50 10° NE visible
02 May 4.9 07:31:50 10° S 07:36:52 42° WSW 07:41:52 10° NNW visible
03 May 7.1 06:11:09 10° ESE 06:14:57 20° ENE 06:18:43 10° NNE visible
04 May 6.6 06:24:01 10° SE 06:28:35 29° ENE 06:33:04 10° NNE visible
05 May 5.8 06:37:10 10° SSE 06:42:13 41° ENE 06:47:07 10° N visible
06 May 5.1 06:50:33 10° SSE 06:55:51 61° ENE 07:00:58 10° N visible
07 May 4.5 07:04:05 10° SSE 07:09:29 89° E 07:14:39 10° NNW visible
08 May 4.5 07:17:47 10° S 07:23:06 63° WSW 07:28:10 10° NNW visible
